Regional Weather Roundup
Issued by NWS

Home | Current Version | Previous Version | Graphics & Text | Print | Product List | Glossary On
Versions: 1 2 3 4 5 6 7 8 9 10 11 12 13 14 15 16 17 18 19 20 21 22 23 24 25 26 27 28 29 30 31 32 33 34 35 36 37 38 39 40 41 42 43 44 45 46 47 48 49 50
000
ASUS43 KFSD 040910
RWRSD

WEATHER ROUNDUP FOR SOUTH DAKOTA
NATIONAL WEATHER SERVICE SIOUX FALLS SD
400 AM CDT SAT JUL 04 2015

NOTE: "FAIR" INDICATES FEW OR NO CLOUDS BELOW 12,000 FEET WITH NO
SIGNIFICANT WEATHER AND/OR OBSTRUCTIONS TO VISIBILITY.


SDZ001>005-009-010-012>017-041000-
NORTHWEST AND NORTH CENTRAL SOUTH DAKOTA

CITY           SKY/WX    TMP DP  RH WIND       PRES   REMARKS
BUFFALO          N/A     64  59  83 SE9       29.81F
FAITH            N/A     64  60  87 SE12      29.88F
MOBRIDGE       CLEAR     67  67 100 SE7       29.86F FOG
$$

SDZ012>016-024>037-041>051-057-063-072>074-041000-
SOUTHWEST AND SOUTH CENTRAL SOUTH DAKOTA

CITY           SKY/WX    TMP DP  RH WIND       PRES   REMARKS
RAPID CTY ARPT MOCLDY    62  59  90 SE7       29.90F
PIERRE         CLEAR     64  62  93 SE7       29.89F
CUSTER         PTCLDY    55  51  86 CALM      30.06F
ELLSWORTH AFB  MOCLDY    65  59  81 S7        29.90F
PHILIP         PTCLDY    64  61  90 E5        29.89F
PINE RIDGE     MOCLDY    69  58  67 S20       29.94F
SPEARFISH      FAIR      66  57  72 E5        29.92F
WINNER         FAIR      69  60  73 S14       29.92F
$$

SDZ004>011-016>023-039-040-041000-
NORTHEAST SOUTH DAKOTA

CITY           SKY/WX    TMP DP  RH WIND       PRES   REMARKS
ABERDEEN       CLOUDY    62  61  96 S7        29.90F FOG
WATERTOWN      CLEAR     63  61  93 CALM      29.95F FOG
BROOKINGS      CLEAR     63  61  94 CALM      29.98S
SISSETON         N/A     61  60  97 S3        29.91S
$$

SDZ017-020-022-023-036>040-048>070-041000-
SOUTHEAST SOUTH DAKOTA

CITY           SKY/WX    TMP DP  RH WIND       PRES   REMARKS
SIOUX FALLS    CLEAR     65  60  84 SW3       29.97S
HURON          CLEAR     65  63  93 SE6       29.92F
CHAMBERLAIN    CLEAR     63  62  98 SE5       29.93S
MITCHELL       CLEAR     66  63  90 S6        29.95S
YANKTON          N/A     61  59  94 SE3       29.96F VSB 3/4
$$

ABBREVIATIONS USED IN REMARKS
   TC - TEMPERATURE IN CELSIUS
  WCI - WIND CHILL INDEX
   HX - HEAT INDEX
  VSB - VISIBILITY



USA.gov is the U.S. government's official web portal to all federal, state and local government web resources and services.